This is the latest recevied weather packets stored in our database for station/object JF7ELG-13. If no packets are shown the sender has not sent any weather packets the latest 10 day(s).
| Time | Temp. | Humidity | Pressure | Rain* | Wind** | Luminosity | Snow |
|---|---|---|---|---|---|---|---|
| 1777349903 | 23.33° C | 63% | 1004.3 hPa | 0 mm | - | - | - |
| 1777348997 | 23.33° C | 61% | 1004.4 hPa | 0 mm | - | - | - |
| 1777348120 | 23.89° C | 59% | 1004.8 hPa | 0 mm | - | - | - |
| 1777347193 | 23.33° C | 56% | 1004.7 hPa | 0 mm | - | - | - |
| 1777346305 | 23.89° C | 56% | 1004.9 hPa | 0 mm | - | - | - |
| 1777345410 | 23.33° C | 59% | 1005.3 hPa | 0 mm | - | - | - |
| 1777344503 | 22.78° C | 58% | 1005.6 hPa | 0 mm | - | - | - |
| 1777343621 | 22.78° C | 58% | 1005.9 hPa | 0 mm | - | - | - |
| 1777342715 | 22.78° C | 58% | 1006.1 hPa | 0 mm | - | - | - |
| 1777341797 | 22.22° C | 58% | 1006.4 hPa | 0 mm | - | - | - |
| 1777340891 | 22.22° C | 61% | 1006.6 hPa | 0 mm | - | - | - |
| 1777340004 | 21.67° C | 61% | 1006.8 hPa | 0 mm | - | - | - |
| 1777339114 | 21.11° C | 61% | 1006.9 hPa | 0 mm | - | - | - |
| 1777338214 | 20.56° C | 64% | 1007.3 hPa | 0 mm | - | - | - |
| 1777337325 | 21.11° C | 63% | 1007.3 hPa | 0 mm | - | - | - |
| 1777336406 | 21.67° C | 60% | 1007.5 hPa | 0 mm | - | - | - |
| 1777335526 | 20.56° C | 59% | 1007.5 hPa | 0 mm | - | - | - |
| 1777334604 | 19.44° C | 67% | 1007.4 hPa | 0 mm | - | - | - |
| 1777333735 | 18.33° C | 71% | 1007.5 hPa | 0 mm | - | - | - |
| 1777332796 | 17.22° C | 72% | 1007.7 hPa | 0 mm | - | - | - |
| 1777331900 | 16.67° C | 75% | 1007.7 hPa | 0 mm | - | - | - |
| 1777331024 | 15.56° C | 75% | 1007.6 hPa | 0 mm | - | - | - |
| 1777330098 | 15.56° C | 77% | 1007.8 hPa | 0 mm | - | - | - |
| 1777329211 | 15° C | 78% | 1007.8 hPa | 0 mm | - | - | - |
| 1777328316 | 14.44° C | 80% | 1007.8 hPa | 0 mm | - | - | - |
* Rain latest hour (hover to see other rain measurements)
** Current wind speed in m/s (hover to see current wind gust speed)